Regional Weather Roundup
Issued by NWS Northern Indiana

Home | Current Version | Previous Version | Text Only | Print | Product List | Glossary Off
Versions: 1 2 3 4 5 6 7 8 9 10 11 12 13 14 15 16 17 18 19 20 21 22 23 24 25 26 27 28 29 30 31 32 33 34 35 36 37 38 39 40 41 42 43 44 45 46 47 48 49 50

000
ASUS43 KIWX 160201
RWRIWX

KIWX WEATHER ROUNDUP
NATIONAL WEATHER SERVICE NORTHERN INDIANA
1000 PM EDT SUN OCT 15 2017

NOTE: "FAIR" INDICATES FEW OR NO CLOUDS BELOW 12,000 FEET WITH NO
SIGNIFICANT WEATHER AND/OR OBSTRUCTIONS TO VISIBILITY.

* THESE STATIONS ARE NOT UNDER NWS QUALITY CONTROL. THEY ALSO MAY NOT
  REPORT WEATHER SUCH AS PRECIPITATION OR FOG.

INZ001>027-160300-
NORTHERN INDIANA

CITY           SKY/WX    TMP DP  RH WIND       PRES   REMARKS
GARY*          CLOUDY    54  41  62 W12G23    30.22R
MICHIGAN CITY* RAIN      48  48 100 CALM      30.22R
KNOX*          CLOUDY    50  45  81 W8        30.20R
SOUTH BEND     LGT RAIN  50  46  86 E8        30.19R
GOSHEN         LGT RAIN  49  43  80 N14       30.19R
MONTICELLO*    CLOUDY    52  42  70 NW7       30.21R
WARSAW*        DRIZZLE   48  46  93 N5        30.19R
AUBURN*        CLEAR     46  43  87 NW5       30.17R
FORT WAYNE     MOCLDY    50  43  77 NW7       30.17R

$$
INZ028>050-160300-
CENTRAL INDIANA

CITY           SKY/WX    TMP DP  RH WIND       PRES   REMARKS
LAFAYETTE      CLOUDY    52  43  71 NW9       30.23R
KOKOMO*        CLOUDY    52  45  77 NW13      30.20R
MUNCIE*        CLOUDY    52  45  77 NW10      30.18R
INDIANAPOLIS   CLOUDY    52  43  71 NW13      30.21R

$$
MIZ043>046-050>051-056>058-064>065-071>073-077>080-160300-
SOUTHWEST LOWER MICHIGAN

CITY           SKY/WX    TMP DP  RH WIND       PRES   REMARKS
BATTLE CREEK   CLEAR     45  42  89 NW5       30.16R
BENTON HARBOR  CLOUDY    54  39  57 CALM      30.18R
COLDWATER*     PTCLDY    47  46  97 NW5       30.16R
HILLSDALE*     CLEAR     46  37  71 NW9       30.13R
HOLLAND        CLOUDY    49  44  83 CALM      30.17R
GRAND RAPIDS   CLOUDY    50  44  80 NW8       30.16R
STURGIS*       MOCLDY    47  44  88 NW7       30.16R
THREE RIVERS*  CLOUDY    50  45  83 NW7       30.18R

$$
OHZ001>008-015>018-024>025-160300-
NORTHWEST OHIO

CITY           SKY/WX    TMP DP  RH WIND       PRES   REMARKS
DEFIANCE       CLEAR     49  43  80 NW8       30.15R
FINDLAY        CLEAR     51  43  74 NW7       30.11R
TOLEDO EXPRESS PTCLDY    51  43  74 NW8       30.12R
TOLEDO METCALF PTCLDY    52  40  63 NW15G22   30.12R
LIMA           CLEAR     50  46  86 NW12      30.13R

$$
AND FOR LAKE MICHIGAN COASTAL AND OPEN LAKE BUOY OBSERVATIONS

STATION/POSITION TEMP    WIND        PRES    VSBY  WAVE
                 AIR SEA DIR/SP/G                  HT/PER
                 (F)     (DEG/KT/KT) (MB)    (MI)  (FT/S)
CALUMET HARBOR    52     290/  6/ 10 1022.3R
MICHIGAN CITY     51     360/ 15/ 19   N/A
BURNS HARBOR      55     300/ 17/ 21 1022.7R
SAINT JOSEPH      56     340/ 16/ 20 1022.4
SOUTH LAKE BUOY   55 62  330/ 16/ 21 1021.4          7/ 9
4 MI NW BRIDGMAN  55 53   10/ 14/ 19 1022.4R         8/ 7
MICHIGAN CITY     54 57  320/ 16/ 21   N/A           8/ 9

$$
&&




USA.gov is the U.S. government's official web portal to all federal, state and local government web resources and services.